Location: Waco, TX
(31.5480°N, 97.1670°W)
Time: 16:41:45
(UTC-05:00)

ISS - All Passes

Search period start: 23 September 2017 00:00
Search period end: 03 October 2017 00:00
Orbit: 401 x 407 km, 51.6° (Epoch: 24 September)

Date Brightness Start Highest point End Pass type
(mag) Time Alt. Az. Time Alt. Az. Time Alt. Az.
23 Sep - 03:57:29 10° N 03:59:17 14° NNE 04:01:05 10° ENE night (unlit)
23 Sep - 05:32:47 10° NW 05:35:58 50° SW 05:39:09 10° SSE visible
23 Sep - 20:32:29 10° SSW 20:35:39 52° SE 20:38:50 10° NE visible
23 Sep - 22:10:37 10° WNW 22:12:20 13° NNW 22:14:04 10° N visible
24 Sep - 04:40:26 10° NW 04:43:42 66° NE 04:46:59 10° SE night (unlit)
24 Sep - 19:40:52 10° S 19:43:28 22° SE 19:46:05 10° ENE visible
24 Sep - 21:17:09 10° W 21:19:51 23° NW 21:22:34 10° NNE visible
25 Sep - 03:48:24 10° NNW 03:51:21 30° NE 03:54:18 10° ESE night (unlit)
25 Sep - 05:25:25 10° W 05:27:38 17° SW 05:29:50 10° S night (unlit)
25 Sep - 18:50:56 10° SE 18:51:21 10° SE 18:51:46 10° ESE daylight
25 Sep - 20:24:17 10° WSW 20:27:27 47° NW 20:30:38 10° NNE visible
26 Sep - 02:56:40 10° N 02:58:53 17° NE 03:01:05 10° ENE night (unlit)
26 Sep - 04:32:23 10° WNW 04:35:27 37° SW 04:38:30 10° SSE night (unlit)
26 Sep - 19:31:53 10° SW 19:35:07 71° SE 19:38:23 10° NE daylight
26 Sep - 21:10:51 10° NW 21:11:55 11° NNW 21:13:00 10° NNW visible
27 Sep - 03:39:54 10° NW 03:43:11 89° NE 03:46:27 10° SE night (unlit)
27 Sep - 18:40:01 10° SSW 18:42:53 29° SE 18:45:46 10° ENE daylight
27 Sep - 20:16:55 10° W 20:19:22 19° NW 20:21:48 10° NNE visible
28 Sep - 02:47:43 10° NNW 02:50:50 38° NE 02:53:55 10° ESE night (unlit)
28 Sep - 04:25:25 10° W 04:27:00 13° SW 04:28:35 10° SSW night (unlit)
28 Sep - 17:49:00 10° SSE 17:50:41 13° SE 17:52:24 10° E daylight
28 Sep - 19:23:50 10° WSW 19:26:53 36° NW 19:29:56 10° NNE daylight
29 Sep - 01:55:50 10° NNW 01:58:21 20° NE 02:00:52 10° E night (unlit)
29 Sep - 03:31:57 10° WNW 03:34:49 28° SW 03:37:40 10° S night (unlit)
29 Sep - 18:31:15 10° SW 18:34:30 84° NW 18:37:46 10° NE daylight
30 Sep - 01:04:30 10° N 01:05:46 12° NNE 01:07:01 10° NE night (unlit)
30 Sep - 02:39:17 10° NW 02:42:32 67° SW 02:45:48 10° SE night (unlit)
30 Sep - 17:39:08 10° SSW 17:42:11 39° SE 17:45:15 10° ENE daylight
30 Sep - 19:16:40 10° WNW 19:18:45 16° NW 19:20:52 10° N daylight
01 Oct - 01:46:58 10° NW 01:50:10 50° NE 01:53:22 10° ESE night (unlit)
01 Oct - 16:47:41 10° S 16:49:56 17° SE 16:52:12 10° E daylight
01 Oct - 18:23:20 10° WSW 18:26:13 29° NW 18:29:06 10° NNE daylight
02 Oct - 00:54:55 10° NNW 00:57:41 24° NE 01:00:27 10° E night (unlit)
02 Oct - 02:31:28 10° WNW 02:34:03 21° SW 02:36:38 10° S night (unlit)
02 Oct - 17:30:32 10° SW 17:33:45 62° NW 17:36:59 10° NE daylight
